Simultaneous Nadir Overpasses (SNOs) Predictions

Prediction of SNOs between AQUA and METOP-C Satellite Orbit:

Table of predicted SNOs for the next 14.0 days since TLE Epoch: 7/17/2021
Index Date (AQUA) Time (AQUA) Lat,Lon (AQUA) SZA (AQUA ) Date (METOP-C) Time (METOP-C) Lat,Lon (METOP-C) SZA (METOP-C ) Distance(km) Time Diff (sec)
1 07/19/2021 13:26:57 -73.29, 153.55 127.42 07/19/2021 13:25:48 -73.27, 151.75 127.36 57.76 69
2 07/19/2021 14:16:34 73.77, -39.83 53.10 07/19/2021 14:16:18 73.75, -39.81 53.09 2.53 16
3 07/19/2021 15:06:00 -73.81, 127.73 126.85 07/19/2021 15:06:58 -73.84, 127.73 126.83 3.65 58
4 07/22/2021 09:01:17 -73.50,-140.44 126.66 07/22/2021 09:00:06 -73.42,-141.51 126.68 35.24 71
5 07/22/2021 09:50:50 73.77, 26.61 53.65 07/22/2021 09:50:39 73.75, 26.60 53.63 2.12 11
6 07/22/2021 10:40:17 -73.86,-165.93 126.26 07/22/2021 10:41:19 -73.84,-165.87 126.28 2.75 62
7 07/25/2021 04:35:36 -73.65, -74.33 125.90 07/25/2021 04:34:23 -73.61, -74.66 125.92 11.12 73
8 07/25/2021 05:25:06 73.77, 93.04 54.24 07/25/2021 05:25:00 73.75, 93.01 54.22 2.62 6
9 07/25/2021 06:14:33 -73.86, -99.50 125.67 07/25/2021 06:15:40 -73.84, -99.47 125.70 2.30 67
10 07/28/2021 00:09:52 -73.71, -8.02 125.21 07/28/2021 00:08:41 -73.71, -8.03 125.20 0.46 71
11 07/28/2021 00:59:21 73.78, 159.46 54.88 07/28/2021 00:59:19 73.80, 159.53 54.90 3.04 2
12 07/28/2021 01:48:48 -73.86, -33.07 125.03 07/28/2021 01:50:00 -73.83, -33.07 125.07 3.09 72
13 07/30/2021 19:44:08 -73.72, 58.40 124.53 07/30/2021 19:43:02 -73.70, 58.37 124.54 2.28 66
14 07/30/2021 20:33:37 73.79,-134.14 55.56 07/30/2021 20:33:40 73.80,-134.07 55.56 2.03 3



Historial Predications of SNOs between AQUA and METOP-C
